Flag for United Kingdom Weather past 2 weeks in York, England, United Kingdom

Now
54 °F

Passing clouds.


Feels Like: 52 °F
Forecast: 47 / 63 °F
Wind: 7 mph from Northwest

Location: Linton-On-Ouse

Current Time: Oct 1, 2014 at 9:39:56 PM

Latest Report: Oct 1, 2014 at 8:50 PM


Visibility: N/A

Pressure: 30.33 "Hg

Humidity: 77%

Dew point: 46 °F

Location of YorkLocation

Historic Weather in York — Graph

°F

York temperature yesterday

Maximum temperature yesterday: 70 °F (at 2:50 PM)
Minimum temperature yesterday: 55 °F (at 6:50 AM)
Average temperature yesterday: 62 °F

Past Weeks' High & Low Weather Summary

 TemperatureHumidityPressure
High70 °F (Sep 18, 2:50 PM)100% (Sep 19, 8:50 PM)30.33 "Hg (Sep 19, 8:50 PM)
Low39 °F (Sep 27, 6:50 AM)43% (Sep 26, 2:50 PM)29.77 "Hg (Sep 24, 5:50 AM)
Average57 °F84%30.08 "Hg
* Reported Sep 16 7:50 PM — Oct 1 7:50 PM, York, Weather by CustomWeather, © 2014

Note: Actual official high and low records may vary slightly from our data, if they occured in-between our weather recording intervals... More about our weather records

Advertising

York weather history for previous 24 hours

 ConditionsComfort  
Time TempWeatherWind HumidityBarometerVisibility
7:50 PM
Oct 1
59 °FPassing clouds.9 mph68%30.30 "HgN/A
6:50 PM61 °FPartly sunny.8 mph72%30.27 "HgN/A
5:50 PM61 °FPartly sunny.8 mph72%30.27 "HgN/A
4:50 PM63 °FBroken clouds.9 mph73%30.24 "HgN/A
3:50 PM64 °FPartly sunny.12 mph73%30.21 "HgN/A
2:50 PM64 °FPartly sunny.10 mph73%30.18 "HgN/A
1:50 PM64 °FPartly sunny.12 mph68%30.18 "HgN/A
12:50 PM64 °FBroken clouds.10 mph64%30.18 "HgN/A
11:50 AM63 °FBroken clouds.15 mph68%30.18 "HgN/A
10:50 AM63 °FBroken clouds.13 mph73%30.15 "HgN/A
9:50 AM61 °FBroken clouds.9 mph72%30.15 "HgN/A
8:50 AM59 °FPartly sunny.1 mph82%30.15 "HgN/A
7:56 AM57 °FPassing clouds.3 mph82%30.12 "HgN/A
6:50 AM57 °FPassing clouds.5 mph88%30.09 "HgN/A
5:50 AM59 °FPassing clouds.12 mph88%30.09 "HgN/A
4:50 AM59 °FPassing clouds.7 mph88%30.09 "HgN/A
3:50 AM57 °FPassing clouds.N/A100%30.07 "Hg2 mi
2:50 AM59 °FCool.N/A94%30.07 "Hg2 mi
1:50 AM59 °FPassing clouds.N/A94%30.09 "Hg3 mi
12:50 AM59 °FPassing clouds.N/A94%30.07 "Hg4 mi
11:50 PM
Sep 30
59 °FPassing clouds.N/A94%30.09 "HgN/A
10:50 PM61 °FPassing clouds.N/A77%30.09 "HgN/A
Weather by CustomWeather, © 2014

See weather overviewHow to use our weather pages